Location: Six Mile Lake
(44.9000°N, 79.7170°W)
Time: 03:10:07
(UTC-04:00)

AO-92 - Pass Details

Date: 07 July 2022
Orbit: 469 x 481 km, 97.4° (Epoch: 17 August)

Event Time Altitude Azimuth Distance (km) Brightness Sun altitude
Exits shadow 00:27:36 13° 254° (WSW) 1,488 ? -21.3°
Maximum altitude 00:28:26 14° 269° (W) 1,445 ? -21.3°
Drops below altitude 10° 00:30:18 10° 300° (WNW) 1,660 ? -21.4°
Sets 00:33:17 0° 328° (NNW) 2,557 ? -21.5°
